TEVEL2-2

Last updated on Mon Sep 21 2026 00:03:15 GMT+0000 (Coordinated Universal Time)

1 63219U 25052K 26263.52707025 .00014006 00000+0 39116-3 0 9995 2 63219 97.3731 159.6282 0004307 119.9709 240.1963 15.36816644 84726
UTC large
Height (km)
Speed (km/s)
/
Latitude / Longitude
Inclination (degrees)
Orbital Period (minutes)
Azimuth
Elevation
Range (km)
Doppler Factor

Next 0 passes for location: London (51.5072 / 0.1276)

No passes found over London.
TEVEL2-2